When you browse on this site, cookies collect data to enhance your experience and personalize the content and advertising you see.
Visit our Privacy Policy to learn more. By continuing to use the site, you agree to this use of cookies and data.

Météo par heure à Gostyzh

Ce jour, 11 Juillet, Samedi

Heure Température Précipitation Vent Pression Humidité
00:00 +13°C° 0 mm 3 m/s 748 mmHg 82%
01:00 +13°C° 0 mm 3 m/s 748 mmHg 82%
02:00 +14°C° 0 mm 2 m/s 748 mmHg 80%
03:00 +13°C° 0 mm 3 m/s 748 mmHg 81%
04:00 +13°C° 0 mm 3 m/s 748 mmHg 82%
05:00 +14°C° 0 mm 3 m/s 748 mmHg 83%
06:00 +16°C° 0 mm 3 m/s 748 mmHg 80%
07:00 +18°C° 0 mm 4 m/s 748 mmHg 76%
08:00 +20°C° 0 mm 5 m/s 748 mmHg 73%
09:00 +21°C° 0 mm 5 m/s 748 mmHg 71%
10:00 +22°C° 0 mm 5 m/s 748 mmHg 69%
11:00 +23°C° 0 mm 5 m/s 748 mmHg 67%
12:00 +25°C° 0 mm 5 m/s 748 mmHg 67%
13:00 +25°C° 0 mm 5 m/s 748 mmHg 68%
14:00 +26°C° 0 mm 5 m/s 748 mmHg 68%
15:00 +25°C° 0 mm 4 m/s 747 mmHg 71%
16:00 +25°C° 0 mm 4 m/s 747 mmHg 74%
17:00 +25°C° 0 mm 4 m/s 747 mmHg 76%
18:00 +23°C° 0 mm 4 m/s 747 mmHg 81%
19:00 +21°C° 0 mm 3 m/s 747 mmHg 86%
20:00 +20°C° 0 mm 3 m/s 747 mmHg 90%
21:00 +19°C° 0 mm 3 m/s 747 mmHg 91%
22:00 +18°C° 0 mm 3 m/s 747 mmHg 91%
23:00 +18°C° 0 mm 3 m/s 746 mmHg 92%

Demain, 12 Juillet, Dimanche

Heure Température Précipitation Vent Pression Humidité
00:00 +17°C° 0 mm 3 m/s 746 mmHg 92%
01:00 +17°C° 0 mm 3 m/s 746 mmHg 92%
02:00 +16°C° 0 mm 3 m/s 746 mmHg 92%
03:00 +17°C° 0 mm 3 m/s 746 mmHg 91%
04:00 +17°C° 0 mm 2 m/s 746 mmHg 90%
05:00 +17°C° 0 mm 2 m/s 745 mmHg 89%
06:00 +19°C° 0 mm 2 m/s 746 mmHg 84%
07:00 +20°C° 0 mm 2 m/s 746 mmHg 80%
08:00 +22°C° 0 mm 3 m/s 746 mmHg 75%
09:00 +24°C° 0 mm 3 m/s 745 mmHg 72%
10:00 +25°C° 0 mm 3 m/s 745 mmHg 70%
11:00 +26°C° 0 mm 3 m/s 745 mmHg 67%
12:00 +26°C° 0 mm 3 m/s 744 mmHg 66%
13:00 +26°C° 0 mm 3 m/s 744 mmHg 66%
14:00 +27°C° 0 mm 4 m/s 744 mmHg 65%
15:00 +26°C° 0 mm 3 m/s 744 mmHg 67%
16:00 +26°C° 0 mm 3 m/s 743 mmHg 69%
17:00 +26°C° 0 mm 2 m/s 743 mmHg 72%
18:00 +24°C° 0 mm 2 m/s 743 mmHg 75%
19:00 +23°C° 0 mm 2 m/s 742 mmHg 79%
20:00 +21°C° 0 mm 1 m/s 742 mmHg 83%
21:00 +19°C° 0 mm 2 m/s 742 mmHg 84%
22:00 +19°C° 0 mm 2 m/s 742 mmHg 85%
23:00 +18°C° 0 mm 2 m/s 742 mmHg 86%

Après-demain, 13 Juillet, Lundi

Heure Température Précipitation Vent Pression Humidité
00:00 +17°C° 0 mm 2 m/s 741 mmHg 87%
01:00 +17°C° 0 mm 2 m/s 741 mmHg 88%
02:00 +16°C° 0 mm 1 m/s 741 mmHg 89%
03:00 +18°C° 0 mm 1 m/s 740 mmHg 88%
04:00 +18°C° 0 mm 1 m/s 740 mmHg 88%
05:00 +19°C° 0 mm 1 m/s 740 mmHg 87%
06:00 +20°C° 0 mm 1 m/s 740 mmHg 82%
07:00 +22°C° 0 mm 1 m/s 740 mmHg 77%
08:00 +22°C° 0 mm 0 m/s 740 mmHg 72%
09:00 +24°C° 0.1 mm 1 m/s 740 mmHg 69%
10:00 +25°C° 0.1 mm 1 m/s 739 mmHg 67%
11:00 +26°C° 0.1 mm 1 m/s 739 mmHg 65%
12:00 +26°C° 0.3 mm 1 m/s 739 mmHg 64%
13:00 +26°C° 0.3 mm 1 m/s 739 mmHg 64%
14:00 +27°C° 0.3 mm 1 m/s 738 mmHg 64%
15:00 +26°C° 1.2 mm 2 m/s 738 mmHg 70%
16:00 +25°C° 1.2 mm 2 m/s 738 mmHg 75%
17:00 +25°C° 1.2 mm 2 m/s 738 mmHg 81%
18:00 +22°C° 1.5 mm 3 m/s 738 mmHg 85%
19:00 +21°C° 1.5 mm 3 m/s 738 mmHg 88%
20:00 +19°C° 1.5 mm 4 m/s 738 mmHg 92%
21:00 +19°C° 2 mm 4 m/s 737 mmHg 94%
22:00 +18°C° 2 mm 4 m/s 737 mmHg 96%
23:00 +17°C° 2 mm 5 m/s 737 mmHg 97%

14 Juillet, Mardi

Heure Température Précipitation Vent Pression Humidité
00:00 +16°C° 1.6 mm 5 m/s 737 mmHg 97%
01:00 +16°C° 1.6 mm 5 m/s 737 mmHg 98%
02:00 +16°C° 1.6 mm 5 m/s 737 mmHg 98%
03:00 +16°C° 2.3 mm 5 m/s 737 mmHg 98%
04:00 +16°C° 2.3 mm 5 m/s 736 mmHg 97%
05:00 +16°C° 2.3 mm 5 m/s 736 mmHg 97%
06:00 +16°C° 1.6 mm 5 m/s 737 mmHg 97%
07:00 +16°C° 1.6 mm 6 m/s 737 mmHg 97%
08:00 +15°C° 1.6 mm 6 m/s 737 mmHg 97%
09:00 +15°C° 0.2 mm 6 m/s 737 mmHg 96%
10:00 +15°C° 0.2 mm 6 m/s 737 mmHg 95%
11:00 +15°C° 0.2 mm 6 m/s 737 mmHg 94%
12:00 +16°C° 0 mm 6 m/s 737 mmHg 92%
13:00 +17°C° 0 mm 6 m/s 737 mmHg 89%
14:00 +19°C° 0 mm 6 m/s 737 mmHg 87%
15:00 +19°C° 0 mm 6 m/s 738 mmHg 86%
16:00 +19°C° 0 mm 6 m/s 738 mmHg 86%
17:00 +17°C° 0 mm 6 m/s 738 mmHg 86%
18:00 +17°C° 0 mm 5 m/s 738 mmHg 87%
19:00 +16°C° 0 mm 5 m/s 738 mmHg 88%
20:00 +16°C° 0 mm 5 m/s 738 mmHg 89%
21:00 +16°C° 0 mm 5 m/s 738 mmHg 87%
22:00 +16°C° 0 mm 5 m/s 738 mmHg 85%
23:00 +15°C° 0 mm 5 m/s 738 mmHg 83%

15 Juillet, Mercredi

Heure Température Précipitation Vent Pression Humidité
00:00 +15°C° 0.2 mm 5 m/s 738 mmHg 83%
01:00 +15°C° 0.2 mm 5 m/s 738 mmHg 82%
02:00 +15°C° 0.2 mm 5 m/s 737 mmHg 82%
03:00 +15°C° 1.1 mm 5 m/s 737 mmHg 84%
04:00 +14°C° 1.1 mm 6 m/s 737 mmHg 87%
05:00 +14°C° 1.1 mm 6 m/s 737 mmHg 89%
06:00 +14°C° 0.9 mm 6 m/s 738 mmHg 88%
07:00 +15°C° 0.9 mm 6 m/s 738 mmHg 87%
08:00 +15°C° 0.9 mm 6 m/s 738 mmHg 86%
09:00 +15°C° 1.1 mm 6 m/s 738 mmHg 87%
10:00 +15°C° 1.1 mm 6 m/s 738 mmHg 89%
11:00 +14°C° 1.1 mm 5 m/s 738 mmHg 90%
12:00 +14°C° 1.4 mm 5 m/s 738 mmHg 91%
13:00 +14°C° 1.4 mm 5 m/s 739 mmHg 91%
14:00 +14°C° 1.4 mm 5 m/s 739 mmHg 92%
15:00 +14°C° 0.7 mm 5 m/s 739 mmHg 92%
16:00 +13°C° 0.7 mm 5 m/s 739 mmHg 92%
17:00 +12°C° 0.7 mm 5 m/s 739 mmHg 92%
18:00 +12°C° 0.2 mm 5 m/s 739 mmHg 91%
19:00 +12°C° 0.2 mm 5 m/s 740 mmHg 90%
20:00 +10°C° 0.2 mm 5 m/s 740 mmHg 90%
21:00 +10°C° 0.2 mm 5 m/s 740 mmHg 90%
22:00 +10°C° 0.2 mm 5 m/s 740 mmHg 91%
23:00 +11°C° 0.2 mm 4 m/s 740 mmHg 92%

16 Juillet, Jeudi

Heure Température Précipitation Vent Pression Humidité
00:00 +12°C° 0.1 mm 4 m/s 740 mmHg 92%
01:00 +12°C° 0.1 mm 4 m/s 739 mmHg 92%
02:00 +12°C° 0.1 mm 4 m/s 739 mmHg 92%
03:00 +12°C° 0 mm 4 m/s 739 mmHg 91%
04:00 +12°C° 0 mm 4 m/s 739 mmHg 91%
05:00 +12°C° 0 mm 4 m/s 739 mmHg 90%
06:00 +12°C° 0 mm 4 m/s 739 mmHg 89%
07:00 +13°C° 0 mm 4 m/s 739 mmHg 88%
08:00 +14°C° 0 mm 4 m/s 739 mmHg 87%
09:00 +15°C° 0 mm 4 m/s 739 mmHg 81%
10:00 +18°C° 0 mm 4 m/s 739 mmHg 74%
11:00 +20°C° 0 mm 4 m/s 739 mmHg 68%
12:00 +20°C° 0.1 mm 4 m/s 739 mmHg 70%
13:00 +20°C° 0.1 mm 4 m/s 739 mmHg 71%
14:00 +20°C° 0.1 mm 4 m/s 739 mmHg 73%
15:00 +20°C° 0.1 mm 3 m/s 739 mmHg 74%
16:00 +20°C° 0.1 mm 3 m/s 739 mmHg 76%
17:00 +20°C° 0.1 mm 3 m/s 738 mmHg 78%
18:00 +19°C° 0.1 mm 2 m/s 738 mmHg 81%
19:00 +17°C° 0.1 mm 2 m/s 739 mmHg 84%
20:00 +16°C° 0.1 mm 1 m/s 739 mmHg 87%
21:00 +15°C° 0 mm 1 m/s 738 mmHg 88%
22:00 +14°C° 0 mm 1 m/s 738 mmHg 89%
23:00 +14°C° 0 mm 1 m/s 738 mmHg 90%
Voir plus